[[{"header":{"parameterUnit":"m.s-1","parameterCategory":1,"la1":30.2992,"la2":30.254,"lo1":-89.0895,"lo2":-89.0443,"dy":0.0025,"dx":0.0025,"nx":19,"ny":19,"refTime":"2026-05-18T03:00:00:Z","depth":0,"parameterNumber":2,"parameterNumberName":"U-component_of_WINDS"},"data":[0,0,0,-3.6194,-3.6196,-3.6311,-3.6312,-3.6463,-3.6464,0,0,0,0,0,0,0,0,0,0,0,-3.6163,-3.6164,-3.6194,-3.6197,-3.6311,-3.6312,-3.6462,-3.6464,0,0,0,0,0,0,0,0,0,0,0,-3.6162,-3.6164,-3.6165,-3.6197,-3.6311,-3.6312,-3.6462,-3.6374,0,0,0,0,0,0,0,0,0,0,-3.6262,-3.6236,-3.6163,-3.6165,-3.6198,-3.6311,-3.6312,-3.6369,-3.6379,-3.6412,0,-3.6443,0,-3.6456,-3.6474,-3.6475,0,0,0,-3.6194,-3.6228,-3.6256,-3.6165,-3.6199,-3.6311,-3.6259,-3.6375,-3.6386,-3.6425,-3.6445,-3.6451,-3.6459,-3.6475,-3.6476,-3.6677,-3.6678,0,0,-3.6188,-3.6185,-3.6248,-3.6263,-3.6247,-3.6255,-3.6263,-3.6382,-3.6403,-3.6446,-3.6454,-3.6461,-3.6476,-3.6478,-3.6676,-3.6677,0,0,0,-3.6171,-3.618,-3.6206,-3.6257,-3.6278,-3.6259,-3.6267,-3.6397,-3.6406,-3.6456,-3.6463,-3.6477,-3.6479,-3.6675,-3.6676,-3.6724,0,0,0,-3.6167,-3.6171,-3.6203,-3.6203,-3.6276,-3.6339,-3.628,-3.6398,-3.6411,-3.6462,-3.6477,-3.6481,-3.6673,-3.6675,-3.672,-3.6747,0,0,0,-3.6154,-3.6169,-3.6187,-3.6202,-3.6252,-3.6337,-3.6353,-3.6401,-3.6416,-3.6475,-3.6481,-3.6673,-3.6675,-3.6717,-3.6741,-3.6798,0,0,0,-3.6139,-3.6228,-3.6188,-3.629,-3.6251,-3.6367,-3.6352,-3.6439,-3.6495,-3.6478,-3.6674,-3.6676,-3.6716,-3.6738,-3.6794,-3.6844,-3.6864,0,0,-3.6249,-3.6241,-3.6302,-3.6269,-3.6392,-3.635,-3.648,-3.6534,-3.6543,-3.6631,-3.6636,-3.6722,-3.6741,-3.6797,-3.6985,-3.7002,0,0,0,-3.6335,-3.6378,-3.6412,-3.6466,-3.6511,-3.6551,-3.6586,-3.6607,-3.6682,-3.6588,-3.6758,-3.677,-3.6803,-3.6827,-3.6841,-3.6869,-3.6687,-3.6687,-3.6687,-3.6485,-3.6492,-3.6592,-3.6613,-3.6666,-3.6702,-3.6745,-3.6779,-3.677,-3.681,-3.6836,-3.6949,-3.6977,-3.6988,-3.7017,-3.6864,-3.6864,-3.6865,-3.6865,-3.6646,-3.6707,-3.6695,-3.6787,-3.6794,-3.6871,-3.691,-3.6901,-3.6974,-3.6931,-3.696,-3.691,-3.7006,-3.7031,-3.6868,-3.6868,-3.6867,-3.6867,-3.6867,-3.6743,-3.6773,-3.6798,-3.6877,-3.6938,-3.6957,-3.7027,-3.7031,-3.7035,-3.7065,-3.7092,-3.7091,-3.7089,-3.7078,-3.7078,-3.7079,-3.7079,-3.7079,-3.7079,-3.6833,-3.6859,-3.6918,-3.6974,-3.701,-3.7057,-3.7096,-3.7131,-3.7171,-3.7168,-3.7168,-3.7154,-3.7015,-3.6978,-3.7086,-3.7084,-3.7084,-3.7083,-3.7083,-3.699,-3.6956,-3.7047,-3.7083,-3.7149,-3.7208,-3.7214,-3.7285,-3.7315,-3.7349,-3.7331,-3.7227,-3.7218,-3.7207,-3.7177,-3.7329,-3.7329,-3.7329,-3.7329,-3.7071,-3.7068,-3.7162,-3.7219,-3.7275,-3.729,-3.7392,-3.7424,-3.745,-3.7469,-3.7448,-3.7409,-3.7398,-3.7396,-3.7381,-3.7352,-3.7546,-3.7546,-3.7547,-3.7167,-3.717,-3.7256,-3.7282,-3.7335,-3.7379,-3.7476,-3.7542,-3.7565,-3.7555,-3.7483,-3.7474,-3.7412,-3.7391,-3.7377,-3.7354,-3.7302,0,0]},{"header":{"parameterUnit":"m.s-1","parameterCategory":1,"la1":30.2992,"la2":30.254,"lo1":-89.0895,"lo2":-89.0443,"dy":0.0025,"dx":0.0025,"nx":19,"ny":19,"refTime":"2026-05-18T03:00:00:Z","depth":0,"parameterNumber":3,"parameterNumberName":"V-component_of_WINDS"},"data":[0,0,0,2.9683,2.9684,2.9715,2.9715,2.9765,2.9765,0,0,0,0,0,0,0,0,0,0,0,2.968,2.968,2.9683,2.9684,2.9715,2.9715,2.9765,2.9765,0,0,0,0,0,0,0,0,0,0,0,2.968,2.968,2.9681,2.9684,2.9715,2.9715,2.9765,2.9737,0,0,0,0,0,0,0,0,0,0,2.9705,2.9709,2.968,2.9681,2.9684,2.9715,2.9715,2.9736,2.9739,2.9755,0,2.9771,0,2.9769,2.9769,2.977,0,0,0,2.9679,2.9706,2.9709,2.9681,2.9684,2.9715,2.9699,2.9738,2.9741,2.9759,2.9772,2.9773,2.977,2.977,2.977,2.988,2.9881,0,0,2.9677,2.9689,2.9707,2.9712,2.9708,2.9699,2.9701,2.974,2.9754,2.9772,2.9774,2.9771,2.977,2.9771,2.988,2.9881,0,0,0,2.9675,2.9688,2.9689,2.971,2.9715,2.97,2.9702,2.9752,2.9752,2.9775,2.9772,2.9771,2.9771,2.9879,2.988,2.9929,0,0,0,2.9674,2.9687,2.9689,2.9696,2.9714,2.9734,2.9714,2.9749,2.9753,2.9771,2.9771,2.9772,2.9878,2.9879,2.9926,2.995,0,0,0,2.9676,2.9687,2.9693,2.9697,2.9711,2.9733,2.9735,2.975,2.9751,2.977,2.9772,2.9877,2.9879,2.9923,2.9945,2.9983,0,0,0,2.968,2.9735,2.9694,2.9755,2.9711,2.9763,2.9734,2.9773,2.9794,2.9771,2.9878,2.988,2.9922,2.9942,2.998,3.0016,3.0033,0,0,2.9756,2.9745,2.978,2.9744,2.9807,2.9758,2.9828,2.9836,2.9826,2.9863,2.9865,2.9927,2.9945,2.9982,3.012,3.0134,0,0,0,2.9808,2.9833,2.9847,2.9869,2.9877,2.9887,2.9883,2.9886,2.9917,2.9848,2.995,2.996,2.9982,2.9999,3.001,3.0028,2.9888,2.9888,2.9888,2.9931,2.9918,2.9974,2.9965,2.9986,2.9983,2.9999,3.0003,2.9982,3.0006,3.0017,3.0103,3.0123,3.0131,3.015,3.0035,3.0035,3.0035,3.0036,3.0042,3.0075,3.0048,3.0093,3.0078,3.0115,3.0115,3.0099,3.0131,3.0093,3.0111,3.0071,3.0146,3.0162,3.0039,3.0039,3.0038,3.0038,3.0037,3.0121,3.0135,3.0139,3.017,3.0195,3.0184,3.0217,3.0202,3.0188,3.0206,3.0216,3.0215,3.0212,3.0212,3.0212,3.0212,3.0213,3.0213,3.0213,3.0202,3.0205,3.0235,3.025,3.0263,3.0278,3.0276,3.0288,3.0297,3.0283,3.0283,3.026,3.0156,3.0131,3.0217,3.0217,3.0216,3.0216,3.0215,3.0319,3.0291,3.0338,3.0351,3.0367,3.0394,3.0375,3.0401,3.0408,3.0425,3.0399,3.0324,3.0311,3.0302,3.0281,3.0401,3.0401,3.0401,3.0401,3.0387,3.0379,3.0424,3.0446,3.0466,3.0454,3.0507,3.0507,3.0502,3.0506,3.0486,3.0456,3.0448,3.044,3.0428,3.0408,3.0558,3.0558,3.0558,3.0458,3.0452,3.0501,3.0496,3.0509,3.052,3.057,3.0596,3.0584,3.0564,3.0508,3.0502,3.0454,3.0439,3.0418,3.0399,3.0362,0,0]}]]